Regional Weather Roundup
Issued by NWS Binghamton, NY

Home | Current Version | Previous Version | Text Only | Print | Product List | Glossary On
Versions: 1 2 3 4 5 6 7 8 9 10 11 12 13 14 15 16 17 18 19 20 21 22 23 24 25 26 27 28
000
ASUS41 KBGM 180310
RWRBGM

REGIONAL WEATHER ROUNDUP
NATIONAL WEATHER SERVICE BINGHAMTON NY
1000 PM EST TUE JAN 17 2017

Note: "fair" indicates few or no clouds below 12,000 feet with no
significant weather and/or obstructions to visibility.

* = Station(s) that does not report precipitation, such as rain,
snow, etc, also no thunder or fog.

NYZ009-015>018-022>025-036-037-044>046-055>057-062-180400
...Central New York...

CITY           SKY/WX    TMP DP  RH WIND       PRES   REMARKS
Binghamton     CLOUDY    33  33 100 S9        29.86F WCI  25
Cortland       LGT RAIN  37  37 100 E3        29.87S
Dansville      CLOUDY    43  40  89 SE5       29.82S
Elmira         CLOUDY    40  35  83 SE5       29.87S
Seneca Falls   LGT RAIN  41  39  93 S14       29.84F
Ithaca         CLOUDY    38  36  92 S6        29.87S WCI  33
Hamilton       CLOUDY    36  32  87 S9        29.89S WCI  29
Monticello     CLOUDY    30  28  93 CALM      29.99S
Norwich        DRIZZLE   34  34 100 S6        29.91S WCI  29
Oneonta        RAIN      34  34 100 S6        29.87F WCI  29
Penn Yan       CLOUDY    40  35  83 SW16      29.83S WCI  31
Rome           LGT RAIN  34  33  96 SE13      29.92F WCI  25
Sidney         CLOUDY    36  36 100 NW3       29.90F
Syracuse       CLOUDY    35  33  92 E7        29.85S WCI  29
$$

PAZ038>040-043-044-047-048-072-180400
...Northeast Pennsylvania...

CITY           SKY/WX    TMP DP  RH WIND       PRES   REMARKS
Hazleton       CLOUDY    34  34 100 E6        29.94F WCI  29
Scranton       LGT RAIN  37  36  96 E6        29.93F WCI  32
$$
&&
KEY
WCI = Wind Chill Index
VSB = Visibility
HX  = Heat Index
$$




USA.gov is the U.S. government's official web portal to all federal, state and local government web resources and services.